Weather in Gaborone

Botswana     24°39′30″S   25°54′43″E
В апреле 2022 года жителям России запретили посещать сайт meteo.paraplan.net по решению Генеральной прокуратуры. Аудитория сайта уменьшилась в 10 раз. Владельцы сайта не видят смысла в поддержке погодного сервера в таких условиях. Сайт будет закрыт в октябре.
temp.,
°C
wind,
m/s
gust,
m/s
humid.,
%
clouds,
%
prec.,
mm/h
press.,
hPa
HPBL,
m
30 september, fri
fri3023:00+20nne24370 0.0 101879
02:00+18ne24420 0.0 101794
05:00+16ene27550 0.0 1017170
08:00+19nne58450 0.0 1018472
11:00+27nne56270 0.0 10161424
14:00+31n33160 0.0 10121988
17:00+31n23140 0.0 10112138
20:00+25nne22190 0.0 101417
1 october, sat
sat123:00+22ne23200 0.0 101649
02:00+19ne37250 0.0 1016143
05:00+18ne23360 0.0 101759
08:00+22nne511310 0.0 1018521
11:00+30nne44170 0.0 10161378
14:00+34nne32140 0.0 10122501
17:00+34nw12130 0.0 10113256
20:00+28ene33194 0.0 101433
2 october, sun
sun223:00+25nne22235 0.0 101513
02:00+22nne22261 0.0 101525
05:00+20se11292 0.0 101713
08:00+25ne36221 0.0 1019417
11:00+31nne55170 0.0 10171320
14:00+35n33130 0.0 10122703
17:00+34nnw11120 0.0 10113225
20:00+28ne39190 0.0 1013183
3 october, mon
mon323:00+25n22230 0.0 101420
02:00+22ne25280 0.0 101495
05:00+20e22350 0.0 101421
08:00+25ne46280 0.0 1016413
11:00+32n45173 0.0 10141270
14:00+36n33120 0.0 10093539
17:00+36ne23114 0.0 10073993
20:00+29ne33160 0.0 101047
4 october, tue
tue423:00+26n26200 0.0 1010105
02:00+24n11230 0.0 101014
05:00+22nne11260 0.0 101113
08:00+27ene12200 0.0 1013349
11:00+34nne46130 0.0 10101267
14:00+38nne4590 0.0 10064242
17:00+37ne56962 0.0 10054734
20:00+31ne614115 0.0 1008454